AirNav   Get $300 off a Bose A20
 
 1413 users online  

KIWH Wabash Municipal Airport
Wabash, Indiana, USA

GOING TO WABASH?


FAA INFORMATION EFFECTIVE 25 APRIL 2019

Location

FAA Identifier: IWH
Lat/Long: 40-45-43.1000N / 085-47-55.5000W
40-45.718333N / 085-47.925000W
40.7619722 / -85.7987500
(estimated)
Elevation: 795.6 ft. / 242.5 m (surveyed)
Variation: 03W (1995)
From city: 3 miles SE of WABASH, IN
Time zone: UTC -4 (UTC -5 during Standard Time)
Zip code: 46992

Airport Operations

Airport use: Open to the public
Activation date: 05/1958
Control tower: no
ARTCC: CHICAGO CENTER
FSS: TERRE HAUTE FLIGHT SERVICE STATION
NOTAMs facility: HUF (NOTAM-D service available)
Attendance: NOV-APR MON - SAT 0800-1700, MAY - OCT SUN 1230 - 1730, NOV - APR SUN 1230 - 1700, MAY-OCT MON - SAT 0800-1800
SEASONAL HOURS
Wind indicator: lighted
Segmented circle: no
Lights: MIRL RY 09/27 PRESET LOW INTST; TO INCR INTST & ACTVT REIL RYS 09 & 27 - CTAF.
Beacon: white-green (lighted land airport)
Operates sunset to sunrise.

Airport Communications

CTAF/UNICOM: 122.8
GRISSOM APPROACH: 121.05
GRISSOM DEPARTURE: 121.05
WX AWOS-3PT at HHG (16 nm E): 126.575 (260-454-1927)
WX AWOS-3 at MZZ (17 nm S): 108.6 (765-674-1317)
WX AWOS-3PT at OKK (18 nm SW): 113.5 (765-452-3014)
  • APCH/DEP SVC PRVDD BY CHICAGO ARTCC ON FREQS 121.05/379.3 (REMOTED FROM GRISSOM) WHEN GRISSOM APCH CTL CLSD.

Nearby radio navigation aids

VOR radial/distance  VOR name  Freq  Var
MZZr344/17.0MARION VOR/DME108.6003W
GUSr068/17.5GRISSOM VORTAC108.4502W
OKKr045/18.4KOKOMO VORTAC113.5005W
FWAr251/30.6FORT WAYNE VORTAC117.8006W
OLKr208/(32.1)WEBSTER LAKE VOR110.4003W
MIEr333/36.5MUNCIE VOR/DME114.4003W

Airport Services

Fuel available: 100LL JET-A
SELF SVC FUEL 100LL A AVBL 24 HRS WITH CREDIT CARD.
Parking: tiedowns
Airframe service: NONE
Powerplant service: NONE
Bottled oxygen: NONE
Bulk oxygen: NONE

Runway Information

Runway 9/27

Dimensions: 4401 x 75 ft. / 1341 x 23 m
Surface: asphalt/grooved, in excellent condition
Weight bearing capacity: 
Single wheel: 27.0
Runway edge lights: medium intensity
RUNWAY 9  RUNWAY 27
Latitude: 40-45.661208N40-45.670573N
Longitude: 085-48.475742W085-47.522630W
Elevation: 793.4 ft.791.7 ft.
Traffic pattern: leftleft
Runway heading: 092 magnetic, 089 true272 magnetic, 269 true
Markings: nonprecision, in good conditionnonprecision, in good condition
Visual slope indicator: 2-light PAPI on left (3.00 degrees glide path)2-light PAPI on left (3.00 degrees glide path)
Runway end identifier lights: yesyes
Touchdown point: yes, no lightsyes, no lights
Obstructions: 15 ft. road, 490 ft. from runway, 19:1 slope to clear
+54 FT PLINE 1275 FT FM RY END 19:1 OBSTN CLNC SLOPE - NOT LGTD.
40 ft. trees, 1380 ft. from runway, 29:1 slope to clear

Runway 18/36

Dimensions: 1940 x 60 ft. / 591 x 18 m
Surface: asphalt, in good condition
Weight bearing capacity: 
Single wheel: 27.0
Runway edge lights: low intensity
RUNWAY 18  RUNWAY 36
Latitude: 40-45.996430N40-45.677055N
Longitude: 085-47.760555W085-47.750758W
Elevation: 790.4 ft.792.8 ft.
Traffic pattern: leftleft
Runway heading: 182 magnetic, 179 true002 magnetic, 359 true
Displaced threshold: 403 ft.no
Markings: basic, in good conditionbasic, in good condition
Touchdown point: yes, no lightsyes, no lights
Obstructions: 84 ft. trees, 1298 ft. from runway, 13:1 slope to clear
RY 18 APCH RATIO 20:1 TO DSPLCD THLD.
53 ft. trees, 1500 ft. from runway, 130 ft. right of centerline, 24:1 slope to clear

Airport Ownership and Management from official FAA records

Ownership: Publicly-owned
Owner: WABASH BOAC
283 W. 400 S.
WABASH, IN 46992
Phone 260-563-4705
Manager: JEFF LASALLE
283 W. 400 S.
WABASH, IN 46992
Phone 260-563-4705
IN CASE OF EMERGENCY - 260-571-2039

Airport Operational Statistics

Aircraft based on the field: 16
Single engine airplanes: 14
Multi engine airplanes: 1
Helicopters: 1
    
Aircraft operations: avg 126/week *
69% local general aviation
29% transient general aviation
2% air taxi
* for 12-month period ending 31 December 2015

Additional Remarks

A23 ULTRALIGHTS FLY RGT TFC PAT RY 09.
24-HR INSIDE PHONE AVBL.

Instrument Procedures

NOTE: All procedures below are presented as PDF files. If you need a reader for these files, you should download the free Adobe Reader.

NOT FOR NAVIGATION. Please procure official charts for flight.
FAA instrument procedures published for use from 25 April 2019 at 0901Z to 23 May 2019 at 0900Z.

 
IAPs - Instrument Approach Procedures
RNAV (GPS) RWY 09 **CHANGED**   download (192KB)
RNAV (GPS) RWY 27 **CHANGED**   download (183KB)
VOR-A **CHANGED**   download (168KB)
NOTE: Special Take-Off Minimums/Departure Procedures apply   download (238KB)

Other nearby airports with instrument procedures:

I76 - Peru Municipal Airport (16 nm W)
KHHG - Huntington Municipal Airport (16 nm E)
KMZZ - Marion Municipal Airport (17 nm S)
KGUS - Grissom Air Reserve Base (17 nm SW)
KOKK - Kokomo Municipal Airport (18 nm SW)
 
Loc | Ops | Rwys | IFR | FBO | Links
Com | Nav | Svcs | Stats | Notes
Area around KIWH (Wabash Municipal Airport)
 
Road maps at: MapQuest Bing Google
 
Aerial photo
WARNING: Photo may not be current or correct
Aerial photo of KIWH (Wabash Municipal Airport)
Photo taken 05-Aug-2012
looking northeast.

Do you have a better or more recent aerial photo of Wabash Municipal Airport that you would like to share? If so, please send us your photo.

 
Sectional chart

 
Airport distance calculator
Flying to Wabash Municipal Airport? Find the distance to fly.

From to KIWH

Sunrise and sunset
Times for 21-May-2019
 Local
(UTC-4)
 Zulu
(UTC)
Morning civil twilight05:5009:50
Sunrise06:2210:22
Sunset20:5800:58
Evening civil twilight21:3001:30

Current date and time
Zulu (UTC)  21-May-2019 14:00:05
Local (UTC-4)  21-May-2019 10:00:05
 
METAR
KHHG 
16nm E 
211335Z AUTO 09009KT 10SM -RA SCT044 SCT070 OVC090 09/07 A3013 RMK AO2 T00850073
KMZZ 
17nm S 
211335Z AUTO 00000KT 10SM SCT030 BKN080 OVC120 09/09 A3011 RMK AO2 T00900088
KGUS 
18nm SW 
211326Z 09011G19KT 10SM FEW070 OVC100 09/09 A3007 RMK AO2A SLP189 $
KOKK 
18nm SW 
211256Z AUTO 08013KT 10SM -RA FEW055 SCT070 OVC085 08/07 A3011 RMK AO2 RAB34 PRESFR SLP199 P0001 T00830072
KRCR 
25nm NW 
211335Z AUTO 10012G16KT 10SM -RA BKN009 BKN013 BKN020 09/07 A3010 RMK AO2 P0001
KGGP 
26nm W 
210918Z AUTO 02003KT 10SM CLR RMK AO2
KFWA 
30nm NE 
211354Z 09013KT 10SM -RA FEW010 BKN090 OVC110 09/07 A3014 RMK AO2 SLP210 P0000 T00940072 $
KASW 
31nm N 
211335Z AUTO 10008KT 10SM SCT026 SCT038 SCT070 07/07 A3014 RMK AO2 P0002
TAF
KGUS 
18nm SW 
211200Z 2112/2217 09012KT 9999 BKN040 BKN100 QNH3010INS BECMG 2112/2114 10010G15KT 9999 SCT050 BKN100 QNH3000INS TEMPO 2115/2123 12015G25KT BECMG 2122/2123 11012G18KT 9999 BKN050 OVC100 QNH2994INS TX15/2120Z TN07/2112Z
NOTAMs
Click for the latest NOTAMs
NOTAMs are issued by the DoD/FAA and will open in a separate window not controlled by AirNav.

 

 
 

FBO, Fuel Providers, and Aircraft Ground Support

  
 Business Name 
 
 Contact 
 
 Services / Description 
 
Fuel Prices
 
Comments
  
Northern Indiana Aviation 260-563-4705
no information available

If you are affiliated with Northern Indiana Aviation and would like to show here your services, contact info, web link, logo, and more, click here
100LL Jet A
SS $4.05 $3.40 
 Updated 09-May-2019
 
   1 read write
SS=Self service
Update Fuel Prices
 

Would you like to see your business listed on this page?

 If your business provides an interesting product or service to pilots, flight crews, aircraft, or users of the Wabash Municipal Airport, you should consider listing it here.  To start the listing process, click on the button below
 
Add a business
 

Other Pages about Wabash Municipal Airport

Update a link
 
Copyright © AirNav, LLC. All rights reserved. Privacy Policy  Contact